Lapse_Rate
6.3 6.7 6.3 6.4 6.4 6.2 5.7 6.0 6.5 6.5 6.9 6.6 6.3 6.5 6.6 6.8 6.7 6.3 6.1 5.7 5.5 5.6 5.6 5.2 5.1 5.1 5.0 5.1 4.9 4.9 5.1 5.1 5.4 5.2 5.0 5.2 5.3 5.5 5.5 5.4 5.6 5.8 5.9 5.8 5.8 5.7 5.5 5.5 5.7
6.3 6.6 6.3 6.4 6.5 6.4 5.8 6.1 6.4 6.3 6.4 6.6 6.8 6.4 6.5 6.8 6.7 6.6 6.4 6.1 5.6 5.7 5.6 5.3 5.2 5.0 5.0 5.1 4.6 5.1 5.0 5.1 4.9 5.2 5.1 5.5 5.4 5.2 5.2 5.6 5.8 5.8 5.8 5.8 5.8 5.9 5.7 5.9 5.8
6.5 6.6 6.5 6.3 6.1 6.1 6.0 6.5 6.7 6.6 6.6 6.4 6.5 6.4 6.6 6.8 6.6 6.5 6.4 6.1 5.7 5.7 5.6 5.4 5.2 5.1 5.0 5.0 4.7 5.1 4.9 5.0 5.2 5.2 5.4 5.5 5.3 5.4 5.6 5.7 5.7 5.8 5.8 5.9 5.8 5.6 5.6 5.5 5.7
6.4 6.6 6.4 5.8 6.1 5.9 6.3 6.8 6.8 7.1 7.0 6.8 6.7 6.6 6.5 6.1 6.4 6.6 6.4 6.0 5.8 5.9 5.7 5.8 5.6 5.4 5.3 5.1 4.8 5.1 5.4 5.4 5.4 5.4 5.5 5.5 5.5 5.5 5.7 5.8 5.8 5.7 5.8 5.8 5.8 5.7 5.7 5.6 5.7
6.5 6.2 6.2 6.4 6.2 5.7 5.7 6.4 6.7 7.1 7.0 6.6 6.6 6.5 6.7 6.3 6.2 6.4 6.1 6.0 5.9 6.2 6.2 6.1 6.0 6.0 5.8 5.6 5.5 5.7 5.3 5.3 5.4 5.6 5.7 5.7 5.5 5.5 5.6 5.7 5.7 5.8 5.9 5.8 5.8 5.7 5.6 5.8 5.8
6.4 6.4 6.3 6.5 6.1 5.7 5.9 6.9 7.2 7.0 6.4 6.4 6.5 6.6 6.2 6.1 6.0 6.4 6.1 5.8 5.8 6.1 6.2 6.2 6.2 6.2 6.1 6.0 5.9 6.0 5.8 5.6 5.5 5.8 5.9 5.8 5.7 5.7 5.7 5.7 5.8 6.0 5.9 5.9 6.0 6.0 5.9 6.0 5.9
6.6 6.5 6.1 6.2 5.7 6.0 6.3 6.8 6.8 6.4 6.0 6.2 6.6 7.0 6.3 6.0 5.8 6.1 5.9 5.8 5.9 6.0 6.2 6.3 6.3 6.4 6.4 6.4 6.2 6.2 6.0 5.6 5.7 5.6 5.9 6.1 6.0 6.1 6.0 5.9 6.1 6.1 6.0 6.0 6.0 6.2 6.1 6.0 5.9
6.0 6.2 5.8 5.8 5.5 5.9 6.5 7.2 6.4 6.3 6.2 6.3 6.3 6.4 6.5 6.0 5.8 5.9 5.9 5.9 6.1 6.1 6.2 6.2 6.3 6.2 6.4 6.3 6.4 6.5 6.3 6.1 6.3 6.2 6.6 6.4 6.2 6.3 6.1 6.0 6.0 6.0 6.0 6.0 5.9 5.9 5.8 6.0 6.1
5.8 6.0 5.8 5.4 5.4 5.6 5.8 6.2 5.8 6.1 6.3 5.9 6.0 6.0 6.2 5.9 5.8 5.9 6.1 6.2 6.3 6.3 6.2 6.2 6.3 6.3 6.2 6.3 6.4 6.6 6.7 6.6 6.8 6.7 6.6 6.6 6.3 6.0 5.9 5.9 5.9 6.1 6.1 6.1 6.1 6.1 6.0 6.2 6.5
5.8 6.0 5.8 5.8 5.5 5.3 5.3 5.6 6.2 6.5 6.4 6.2 6.1 6.0 6.0 5.9 5.8 5.7 5.9 6.3 6.4 6.4 6.4 6.2 6.3 6.4 6.2 6.4 6.4 6.5 6.7 6.7 6.6 6.2 6.3 6.2 6.1 6.0 5.9 5.8 6.0 6.0 6.0 6.1 6.0 6.1 6.4 6.5 6.7
5.3 5.5 6.0 5.8 5.8 5.5 5.2 5.8 5.8 6.4 6.5 6.4 6.6 6.1 6.2 6.0 5.8 5.6 6.0 6.2 6.5 6.7 6.4 6.4 6.4 6.3 6.1 6.4 6.6 6.8 6.7 6.7 6.5 6.3 6.2 6.0 5.9 5.8 5.9 5.8 5.6 5.8 6.0 5.9 6.0 6.3 6.6 6.6 6.7
5.9 5.9 5.9 5.7 5.7 5.5 5.6 5.6 5.6 6.2 6.3 6.2 6.4 6.5 6.5 6.3 6.0 5.9 6.1 6.4 6.5 6.6 6.5 6.3 6.3 6.3 6.3 6.4 6.7 6.8 6.6 6.4 6.2 6.1 6.1 5.9 5.7 5.7 5.9 5.9 6.0 5.9 5.7 5.8 6.0 6.6 6.7 6.4 7.1
6.5 5.6 5.9 5.5 5.8 5.8 5.6 5.5 5.6 6.1 6.0 6.0 5.9 6.1 6.1 6.1 5.8 5.8 5.9 6.1 6.4 6.4 6.6 6.5 6.4 6.4 6.4 6.6 6.8 6.6 6.4 6.2 6.3 6.1 6.0 5.7 5.7 5.9 5.7 5.7 5.4 5.4 5.2 5.4 5.7 6.3 6.3 6.6 6.6
5.9 5.4 5.6 5.6 5.7 5.6 5.7 5.6 5.3 5.8 6.0 6.0 5.9 5.8 6.1 6.2 6.1 6.1 6.2 6.0 6.1 6.2 6.4 6.5 6.4 6.7 6.6 6.5 6.6 6.3 6.3 6.1 6.4 6.0 6.0 5.5 5.6 5.9 5.7 5.7 5.6 5.6 5.6 5.8 6.2 6.6 6.8 6.8 6.5
5.8 5.5 5.4 5.4 5.6 5.6 5.2 5.5 5.5 6.0 5.8 5.8 5.8 5.6 5.9 6.1 5.8 5.9 6.1 6.1 6.2 6.3 6.3 6.2 6.1 6.5 6.4 6.5 6.6 6.2 6.2 6.2 6.1 6.1 5.6 5.6 5.8 6.0 5.8 5.9 5.7 5.7 6.0 6.2 6.4 6.7 7.0 7.0 6.3
6.2 5.7 5.1 5.4 5.7 5.3 5.5 5.5 5.4 5.8 5.9 5.6 5.6 5.8 5.6 5.9 5.7 5.8 6.0 6.0 6.3 6.3 6.5 6.3 6.3 6.4 6.1 6.2 6.4 6.0 6.1 6.3 6.2 5.9 5.8 5.7 5.7 5.9 5.9 5.8 6.0 6.1 6.5 6.4 6.5 6.9 6.8 6.6 6.0
5.8 5.9 5.3 5.2 5.2 5.2 5.5 5.4 5.5 5.4 5.4 5.4 5.6 5.9 5.5 5.6 5.3 5.5 6.0 6.1 6.1 6.2 6.2 6.4 6.3 6.4 6.2 6.2 6.1 6.2 6.5 6.3 6.1 5.8 5.6 5.8 5.9 6.0 6.1 6.1 6.2 6.2 6.7 7.0 6.8 6.8 6.7 6.2 6.5
6.8 6.4 5.6 4.6 5.1 5.1 5.5 5.7 5.4 5.4 5.2 5.2 5.4 5.7 5.6 5.6 5.5 5.5 5.8 5.9 5.9 5.9 6.3 6.5 6.5 6.6 6.4 6.0 5.8 5.9 6.3 6.3 5.9 5.7 5.6 6.0 6.2 5.8 6.1 6.0 6.1 6.3 6.8 7.0 7.0 6.8 7.0 6.9 6.9
6.8 6.5 6.4 5.8 5.3 4.9 5.3 5.3 5.4 5.5 4.8 5.5 5.6 5.5 5.7 5.7 5.6 5.6 5.6 5.6 5.6 5.7 6.2 6.4 6.3 6.8 6.6 6.0 5.8 6.1 6.3 6.2 5.9 5.8 5.9 6.0 6.0 5.9 6.2 6.1 6.2 6.2 6.4 6.6 7.1 7.1 6.7 7.1 7.1
7.3 6.7 6.5 5.6 5.4 5.3 5.2 4.8 5.0 5.2 5.4 5.8 5.7 5.6 5.9 5.9 5.9 5.8 5.6 5.6 5.2 5.3 5.7 6.3 6.2 6.2 6.7 6.3 5.9 6.1 6.1 6.0 5.8 5.7 5.9 5.8 5.9 5.9 6.0 6.2 6.2 6.1 6.5 6.8 6.8 7.0 6.3 6.7 6.7
7.4 7.0 7.2 6.7 6.1 5.4 5.9 5.4 5.1 5.1 5.3 5.4 5.5 5.7 5.7 5.8 6.0 6.0 6.1 5.6 5.2 5.2 5.4 6.1 6.0 6.2 6.6 6.4 6.4 5.9 6.0 6.1 6.1 5.9 5.9 6.0 5.8 5.8 5.8 5.9 6.0 6.1 6.6 6.6 7.0 7.0 6.4 6.3 6.6
7.3 7.3 7.3 7.0 6.3 6.0 6.1 5.7 5.8 5.5 5.3 5.0 5.1 5.4 5.7 5.6 5.8 6.0 6.0 5.9 5.4 5.3 5.1 5.4 5.8 6.0 6.2 6.3 6.2 6.0 5.7 6.0 5.8 5.7 5.8 5.9 6.0 5.6 5.9 5.9 5.8 6.0 6.2 6.3 6.4 6.8 6.8 6.8 6.8
7.2 7.0 7.6 7.2 6.6 6.5 5.6 5.9 6.0 5.3 5.6 5.5 5.3 5.9 6.0 5.6 5.5 5.8 6.0 5.8 5.5 5.3 5.4 5.4 5.6 5.7 5.7 5.9 6.0 5.7 5.9 5.5 5.6 5.6 6.0 5.8 5.7 5.9 6.0 6.0 5.8 6.0 6.1 6.4 6.3 6.6 6.6 7.0 6.9
7.0 6.9 6.8 6.9 6.8 6.3 6.4 5.8 6.2 5.1 6.7 5.7 5.6 5.8 6.1 5.9 5.8 5.7 5.7 5.5 5.7 5.4 5.6 5.6 5.5 5.5 5.6 5.7 5.9 5.9 5.8 5.8 5.8 5.8 5.9 6.1 5.8 5.7 5.9 5.7 5.7 6.0 6.0 6.2 6.3 6.3 6.4 6.7 6.7
7.9 7.6 6.7 6.6 6.2 6.0 6.4 5.6 6.5 6.5 6.7 6.5 5.7 5.5 5.5 5.6 5.7 5.7 5.8 5.7 5.7 5.8 5.6 5.7 5.7 5.6 5.7 5.6 5.5 5.6 5.7 5.6 5.5 5.7 5.8 6.0 6.1 5.9 5.7 5.6 5.7 5.9 6.1 6.2 6.0 6.4 6.6 6.7 6.4
7.7 8.1 7.5 6.7 6.3 6.9 6.7 5.9 6.7 6.7 7.1 7.2 6.3 6.4 6.0 5.7 5.4 5.6 5.6 5.8 5.7 5.7 5.8 5.6 5.9 5.7 5.8 5.8 5.6 5.4 5.4 5.5 5.5 5.3 5.4 5.8 5.9 5.9 6.0 5.8 5.8 5.8 6.1 6.1 6.1 6.2 6.4 6.5 6.5
8.0 8.0 7.9 7.0 6.9 6.9 7.0 7.1 7.4 7.3 8.2 8.0 7.5 6.8 6.1 6.2 5.8 5.8 5.7 5.6 5.7 5.8 5.8 5.7 5.7 6.0 5.8 5.5 5.5 5.4 5.3 5.6 5.7 5.6 5.3 5.3 5.7 6.0 6.0 5.7 5.9 5.9 5.9 6.1 6.1 6.0 6.1 6.3 6.3
9.0 8.6 7.1 6.8 7.0 7.2 6.9 7.5 8.1 8.2 7.9 7.4 7.0 7.5 7.8 7.2 6.4 5.9 6.0 5.6 5.6 5.6 5.4 5.7 5.5 5.7 5.8 5.7 5.7 5.6 5.4 5.5 5.7 5.9 5.5 5.5 5.6 5.7 5.9 5.9 5.7 5.8 5.8 5.8 6.0 6.1 6.1 6.1 6.1
8.9 8.6 9.1 8.5 8.7 7.8 6.5 7.7 8.1 8.4 7.9 7.9 7.1 6.9 6.7 6.9 6.3 6.3 6.5 6.2 6.4 5.7 5.4 5.8 5.7 5.7 5.9 5.9 5.9 5.8 5.7 5.6 5.7 5.6 5.7 5.8 5.8 5.8 5.6 5.7 5.9 6.0 5.9 6.0 5.9 5.9 5.9 6.0 6.1
9.0 9.0 9.3 9.1 8.9 8.9 8.4 7.9 8.0 7.9 7.6 7.4 6.5 6.7 6.9 6.2 6.4 6.0 5.9 6.1 6.2 6.2 5.6 6.0 5.9 5.7 5.8 5.8 6.1 6.1 5.9 5.9 5.8 5.8 5.7 5.8 5.8 5.7 5.7 5.7 5.7 5.8 6.1 6.2 6.0 5.9 5.8 5.7 5.6
Wind_Speed
1 3 1 1 3 4 3 4 2 5 3 3 13 7 10 5 1 4 3 5 7 4 7 9 9 7 6 7 6 10 10 9 13 13 14 14 14 15 15 13 14 13 13 13 12 14 14 12 13
0 3 1 1 4 4 3 5 7 6 9 18 10 8 8 5 4 10 6 7 6 7 8 10 11 10 9 8 7 10 11 9 12 13 13 14 13 14 13 13 12 12 11 12 12 12 11 11 11
2 2 1 3 3 4 4 2 13 10 5 5 5 6 4 3 9 9 9 10 7 7 9 11 11 11 9 8 9 7 11 11 12 13 13 13 12 11 11 12 11 10 10 11 9 9 8 8 9
1 2 2 4 4 4 3 8 9 14 13 11 11 10 5 3 8 7 13 10 8 6 8 11 11 11 9 7 9 8 9 11 11 12 12 12 11 10 10 9 9 8 9 9 8 7 6 7 8
1 1 2 5 3 3 3 8 10 7 6 11 5 6 6 7 13 16 12 10 9 6 8 11 11 12 11 8 8 10 8 10 12 11 11 11 9 8 6 6 6 7 8 8 7 5 6 6 8
3 1 4 5 7 4 4 4 11 16 13 14 12 9 4 14 16 11 10 10 8 7 8 9 11 12 12 12 9 9 9 7 10 10 10 9 8 7 7 6 6 8 8 8 7 5 6 9 9
3 2 2 10 8 3 3 3 11 15 12 7 10 5 4 10 11 10 9 7 6 8 7 8 9 13 12 11 12 11 9 10 9 8 9 8 7 6 6 6 7 7 6 6 6 6 7 7 7
2 2 2 4 6 3 7 5 12 16 5 13 10 7 6 4 12 10 9 5 5 5 6 6 2 8 12 12 11 13 10 8 7 5 7 6 6 6 7 6 4 4 4 4 4 5 5 4 4
1 3 3 3 4 4 2 7 8 5 13 5 3 8 12 15 15 12 8 4 3 4 3 5 4 3 7 10 11 13 12 10 8 6 6 6 4 4 6 4 5 5 6 6 4 4 4 5 4
3 3 2 1 3 3 3 12 9 9 12 12 14 13 18 17 15 14 11 9 5 5 3 4 6 5 6 5 9 9 9 8 5 4 3 4 3 3 5 7 10 10 9 8 7 7 9 9 10
2 1 1 2 2 5 3 12 8 17 11 19 20 18 18 15 12 11 11 10 9 7 4 5 5 7 5 6 6 5 7 7 4 2 2 2 1 3 4 4 7 7 8 11 9 9 10 8 9
4 7 5 3 2 1 2 5 10 6 6 17 21 22 17 16 12 12 11 10 8 9 7 6 7 7 6 7 5 6 6 4 4 4 1 2 2 3 3 2 4 5 7 9 8 8 9 10 11
3 7 11 6 4 5 8 4 10 5 16 18 19 21 19 15 11 9 10 10 9 8 6 7 6 6 6 6 4 4 4 5 6 6 4 3 2 2 4 4 6 8 7 4 3 4 5 5 7
6 8 8 10 8 4 2 6 10 9 19 19 20 18 17 17 15 10 10 10 11 9 7 7 7 8 8 5 5 5 4 6 7 8 5 5 5 1 2 4 7 8 6 4 1 1 2 2 5
9 6 5 4 10 5 4 5 7 19 21 18 18 17 17 16 15 15 13 12 11 10 9 9 7 8 7 6 6 6 8 9 8 7 8 5 5 4 3 6 6 9 9 4 2 2 1 3 4
5 3 2 7 10 2 0 3 3 20 21 19 18 16 16 16 16 15 12 12 9 9 9 8 8 7 6 6 7 6 8 10 5 8 7 3 6 4 3 4 4 8 10 8 5 3 3 2 5
7 2 6 7 5 3 7 4 8 3 15 16 18 17 14 12 13 12 13 11 10 9 11 7 7 7 6 5 6 6 7 6 7 6 4 4 4 1 3 4 6 7 5 5 3 2 3 4 4
4 4 2 11 3 5 9 5 8 6 8 10 18 15 16 16 17 15 14 11 8 8 9 7 5 7 6 4 2 3 3 2 4 4 3 4 3 6 3 2 5 8 4 4 3 5 7 5 7
9 4 9 0 7 8 4 6 13 5 8 7 13 16 16 17 13 13 13 11 9 6 6 7 7 5 4 2 3 2 3 1 1 5 3 2 1 3 4 1 8 8 5 3 4 2 7 6 2
2 7 7 10 8 3 5 4 6 2 2 3 8 14 14 8 11 14 13 11 10 8 8 7 8 7 4 3 2 3 3 2 1 2 4 3 4 2 2 3 5 5 4 6 5 5 3 4 3
3 2 5 3 11 1 7 2 3 4 6 3 4 6 10 14 15 13 15 14 11 10 9 10 7 9 6 6 3 3 4 3 2 1 2 5 7 6 5 6 7 4 3 3 3 4 5 4 1
1 10 4 11 4 3 3 5 6 6 10 8 9 6 7 13 12 13 15 14 14 12 6 6 7 7 5 6 4 4 4 3 3 2 1 2 6 4 5 7 6 3 2 3 3 3 2 2 3
1 6 5 7 3 2 3 1 3 5 11 10 9 10 10 14 18 17 17 17 14 10 11 8 7 6 7 7 6 5 3 2 1 2 4 3 4 7 4 4 5 3 2 2 4 4 3 2 2
14 8 7 5 3 2 3 2 4 5 15 9 9 9 9 7 13 12 9 9 10 9 8 6 7 6 5 7 7 7 7 5 3 2 3 3 2 2 6 5 4 2 2 1 4 4 3 2 1
12 6 3 4 2 4 4 2 8 7 9 16 16 13 11 7 9 13 12 11 10 11 10 7 7 7 7 7 7 7 7 6 7 6 4 5 2 2 4 4 4 2 3 3 4 4 4 4 2
8 7 5 1 3 1 5 5 4 6 7 12 17 20 16 12 8 14 14 13 13 13 11 10 8 7 7 6 7 7 6 4 4 5 4 4 4 4 5 6 7 7 6 4 2 1 2 2 2
4 4 10 2 3 2 3 6 5 6 5 9 16 18 22 21 17 16 14 13 14 13 14 13 11 9 8 7 5 6 6 6 5 6 5 4 4 4 7 8 6 7 6 6 4 2 2 2 1
9 8 8 1 3 3 2 3 4 5 4 4 6 15 18 21 23 17 15 14 11 13 13 13 11 13 10 8 6 6 6 6 6 5 6 6 6 5 5 7 6 6 6 5 4 3 2 4 2
1 1 6 6 3 4 4 6 7 3 7 6 4 4 6 9 14 18 16 15 14 12 13 13 11 10 9 8 6 6 6 6 5 5 6 6 5 5 5 6 6 7 6 5 4 4 4 4 4
5 3 5 5 4 2 3 4 6 4 8 8 4 7 8 7 8 9 9 12 11 12 10 13 12 10 10 8 7 7 5 5 5 6 6 6 6 5 6 5 5 6 6 6 7 7 5 5 5
Wind_Direction
212 173 210 69 52 64 34 38 83 102 76 299 156 122 111 33 108 162 132 137 135 125 146 147 151 150 131 108 121 99 103 113 115 108 112 115 107 110 113 107 105 105 102 104 103 101 96 95 94
315 207 20 53 73 66 7 350 87 93 122 100 81 97 58 60 52 115 105 142 139 129 136 136 141 140 136 145 142 114 107 111 114 116 114 111 111 113 110 106 100 100 99 104 100 98 95 90 84
258 230 50 75 90 126 135 80 117 118 88 93 104 70 70 87 109 132 130 133 120 107 131 141 142 143 147 162 129 127 123 125 118 123 119 116 115 115 108 105 109 108 106 100 100 95 91 78 59
14 23 44 73 75 20 130 151 141 101 70 78 109 77 74 119 137 134 135 136 117 116 142 144 146 144 154 159 130 134 123 126 124 123 122 121 112 114 115 112 105 91 92 92 93 89 80 57 40
58 83 66 87 91 77 48 106 129 101 81 89 77 88 83 146 112 128 136 135 130 127 141 152 152 148 145 146 134 129 136 130 130 129 122 122 117 111 110 101 87 74 76 86 80 78 62 48 34
32 113 71 90 107 108 273 163 113 87 92 101 96 104 52 129 128 138 135 139 140 129 142 151 150 151 147 146 140 136 138 140 125 124 125 122 119 107 93 83 78 58 59 62 52 35 35 37 27
89 36 43 125 128 153 235 185 115 114 122 117 134 89 109 131 139 132 131 128 131 124 134 142 160 152 149 138 137 140 145 134 123 118 114 112 99 94 92 78 62 51 45 50 38 15 28 36 31
103 98 99 74 156 126 159 112 125 138 96 112 146 136 167 170 142 126 125 106 115 119 128 132 154 143 144 143 140 139 146 141 122 117 103 105 104 99 89 70 52 46 34 30 24 8 11 27 19
79 58 50 36 130 141 224 130 145 110 131 143 135 132 145 137 135 133 122 102 107 132 140 138 137 115 119 128 144 150 151 153 146 144 142 103 78 61 64 41 21 8 354 347 344 349 328 324 313
50 68 311 111 303 337 97 144 138 131 136 108 100 105 130 140 147 148 150 158 166 167 189 176 150 156 147 140 146 156 151 145 149 170 137 120 102 44 7 20 13 359 341 314 313 315 303 312 311
28 135 191 201 51 340 15 137 150 146 142 152 144 146 148 150 159 157 152 166 176 172 174 182 173 173 180 163 158 131 129 136 136 168 92 13 42 33 75 46 13 2 336 323 323 312 297 297 293
132 146 197 230 48 331 276 342 177 171 165 155 150 150 149 162 167 162 162 173 164 173 182 177 188 178 205 176 163 131 119 128 149 179 161 193 69 50 79 47 315 300 330 322 317 306 305 306 301
204 172 214 243 249 264 307 255 180 190 139 146 147 152 157 161 170 166 176 165 166 182 173 180 181 190 200 177 169 138 164 215 202 190 161 167 123 22 328 5 335 335 336 337 1 356 320 305 311
194 157 201 199 221 280 231 223 121 188 146 153 160 163 162 166 174 155 165 165 180 177 181 174 191 202 192 182 183 183 186 187 171 180 146 125 91 43 314 8 6 9 349 336 6 355 5 358 13
107 102 155 180 158 239 270 109 164 151 154 158 166 171 174 172 165 169 169 167 177 187 177 182 193 202 200 179 195 187 182 187 198 172 157 139 109 119 13 24 5 347 339 331 254 251 70 72 78
90 87 59 159 175 231 302 180 190 150 154 168 174 175 179 179 171 171 166 169 169 162 173 177 182 191 189 157 191 187 192 175 186 167 166 109 148 91 33 10 356 2 8 18 41 21 26 74 66
27 121 347 332 246 219 217 146 187 150 173 169 179 175 179 175 174 172 172 170 175 167 168 188 157 158 160 142 185 178 172 170 180 186 180 112 85 73 25 17 20 16 19 20 18 4 27 53 64
163 131 128 244 223 270 222 156 151 173 204 161 173 170 177 181 182 175 171 171 166 171 173 167 160 140 135 139 124 98 123 156 185 208 214 124 146 139 38 10 50 39 23 19 11 57 60 82 104
138 166 187 99 61 307 336 159 172 158 136 151 171 171 175 187 177 166 168 169 161 166 159 168 154 150 138 121 128 116 163 170 201 229 188 193 164 115 56 44 56 34 44 11 353 102 85 85 101
235 241 172 130 196 208 41 231 311 86 14 166 173 178 174 146 159 167 167 172 175 182 181 168 167 160 157 120 177 131 142 173 143 210 164 175 176 196 44 33 58 54 46 19 18 38 92 73 349
292 208 187 136 158 49 135 57 296 93 294 244 142 160 160 159 163 167 171 180 181 189 193 176 177 164 159 161 113 74 77 73 74 66 152 211 215 201 185 100 77 68 70 26 28 45 84 133 232
187 241 121 138 135 171 248 184 215 190 206 210 176 133 166 163 168 169 171 176 191 195 170 193 165 167 155 132 124 147 146 145 191 180 149 187 203 211 203 140 116 94 78 67 51 59 119 120 154
271 32 95 113 107 109 211 139 228 157 201 202 191 165 174 176 170 178 178 180 185 180 180 189 164 185 153 154 154 145 153 158 162 140 179 190 209 209 225 170 149 139 105 60 92 91 113 159 130
115 89 44 46 85 352 154 110 256 198 218 181 178 161 171 179 175 176 173 163 159 167 174 166 166 187 183 157 160 169 176 179 166 208 206 199 226 214 221 191 192 192 165 135 109 122 166 157 149
119 122 27 8 22 236 86 86 244 199 208 186 178 170 181 188 169 171 162 165 163 165 172 169 174 196 190 185 167 182 194 189 195 201 206 184 187 219 216 180 187 207 230 225 142 149 170 210 226
194 145 130 134 211 270 41 239 246 228 256 221 179 167 167 174 190 187 182 174 177 172 172 180 176 200 192 201 191 179 179 206 212 202 199 220 204 201 192 201 204 210 213 217 202 140 131 183 330
192 120 122 305 263 96 215 276 289 221 328 149 160 161 178 180 183 187 184 184 178 175 177 187 182 194 193 195 204 201 188 195 214 229 215 200 214 226 214 202 204 208 220 197 180 162 134 151 171
167 166 112 311 296 255 275 272 247 300 79 1 202 191 187 181 179 188 173 180 183 184 183 183 187 190 196 190 191 202 203 204 208 212 215 209 223 225 229 203 196 195 208 200 188 198 199 158 198
106 178 56 124 188 179 150 255 349 335 135 111 118 132 193 198 196 190 183 183 175 178 181 183 186 180 182 188 194 196 212 215 210 210 229 217 220 220 223 210 193 195 196 191 200 235 220 192 211
91 123 129 120 204 241 160 260 334 76 100 114 160 186 170 169 179 194 187 180 177 176 179 183 185 183 191 179 175 196 200 213 211 221 232 226 218 214 199 191 199 199 202 198 197 213 210 226 228